TimeCST,TemperatureF,Dew PointF,Humidity,Sea Level PressureIn,VisibilityMPH,Wind Direction,Wind SpeedMPH,Gust SpeedMPH,PrecipitationIn,Events,Conditions,WindDirDegrees,DateUTC
12:54 AM,27.0,24.1,89,30.00,4.0,WNW,6.9,-,N/A,,Clear,300,2012-02-16 06:54:00
1:54 AM,27.0,24.1,89,30.00,4.0,Calm,Calm,-,N/A,,Mostly Cloudy,0,2012-02-16 07:54:00
2:54 AM,28.0,25.0,88,29.99,3.0,Calm,Calm,-,N/A,,Mostly Cloudy,0,2012-02-16 08:54:00
3:04 AM,26.6,24.8,93,29.94,2.5,NW,3.5,-,N/A,,Mostly Cloudy,320,2012-02-16 09:04:00
3:25 AM,28.4,26.6,93,29.94,3.0,NW,4.6,-,N/A,,Overcast,310,2012-02-16 09:25:00
3:54 AM,30.9,28.0,89,29.99,4.0,WNW,6.9,-,N/A,,Overcast,290,2012-02-16 09:54:00
4:54 AM,32.0,28.9,88,29.99,4.0,WNW,8.1,-,N/A,,Overcast,300,2012-02-16 10:54:00
5:18 AM,30.2,28.4,93,29.95,4.0,WNW,8.1,-,N/A,,Mostly Cloudy,290,2012-02-16 11:18:00
5:33 AM,30.2,28.4,93,29.95,3.0,WNW,11.5,-,N/A,,Mostly Cloudy,300,2012-02-16 11:33:00
5:54 AM,30.9,28.0,89,30.00,4.0,NW,16.1,-,N/A,,Overcast,310,2012-02-16 11:54:00
6:15 AM,30.2,26.6,86,29.96,6.0,NW,12.7,-,N/A,,Overcast,310,2012-02-16 12:15:00
6:51 AM,30.2,24.8,80,29.97,7.0,WNW,9.2,-,N/A,,Scattered Clouds,300,2012-02-16 12:51:00
6:54 AM,30.0,26.1,85,30.02,7.0,WNW,9.2,-,N/A,,Scattered Clouds,300,2012-02-16 12:54:00
7:54 AM,30.0,25.0,82,30.04,5.0,WNW,11.5,-,N/A,,Haze,300,2012-02-16 13:54:00
8:54 AM,30.9,26.1,82,30.06,5.0,WNW,8.1,-,N/A,,Haze,290,2012-02-16 14:54:00
9:54 AM,32.0,26.1,79,30.06,7.0,West,8.1,-,N/A,,Clear,280,2012-02-16 15:54:00
10:54 AM,35.1,25.0,67,30.06,10.0,West,12.7,-,N/A,,Overcast,280,2012-02-16 16:54:00
11:54 AM,35.1,24.1,64,30.04,10.0,West,6.9,-,N/A,,Overcast,260,2012-02-16 17:54:00
12:54 PM,37.9,24.1,57,30.02,10.0,West,12.7,17.3,N/A,,Scattered Clouds,270,2012-02-16 18:54:00
1:54 PM,37.9,21.9,53,30.01,10.0,WNW,11.5,-,N/A,,Clear,290,2012-02-16 19:54:00
3:54 PM,37.0,21.9,54,30.02,10.0,West,13.8,20.7,N/A,,Mostly Cloudy,270,2012-02-16 21:54:00
4:54 PM,34.0,21.0,59,30.04,10.0,WNW,11.5,-,N/A,,Overcast,290,2012-02-16 22:54:00
6:54 PM,33.1,21.9,64,30.06,10.0,West,6.9,-,N/A,,Overcast,280,2012-02-17 00:54:00
7:54 PM,32.0,21.9,66,30.06,10.0,West,4.6,-,N/A,,Overcast,270,2012-02-17 01:54:00
8:54 PM,32.0,21.0,64,30.06,10.0,West,6.9,-,N/A,,Overcast,260,2012-02-17 02:54:00
9:54 PM,32.0,21.9,66,30.07,10.0,West,6.9,-,N/A,,Overcast,260,2012-02-17 03:54:00
10:54 PM,30.9,21.0,67,30.07,10.0,West,4.6,-,N/A,,Overcast,270,2012-02-17 04:54:00
11:54 PM,28.9,19.9,69,30.07,10.0,West,5.8,-,N/A,,Scattered Clouds,260,2012-02-17 05:54:00